Terminal Aerodrome Forecast
Issued by NWS Wilmington, OH

Current Version | Previous Version | Graphics & Text | Print | Product List | Glossary On
Versions: 1 2 3 4 5 6 7 8 9 10 11 12 13 14 15 16 17 18 19
000
FTUS41 KILN 311100
TAFCMH
TAF
KCMH 311134Z 3112/0112 20014G22KT P6SM BKN100
     FM311500 25016G26KT P6SM SCT100
     FM311800 30015G25KT P6SM BKN050
     FM312200 33011KT P6SM SCT050
     FM010200 VRB03KT P6SM SKC=

USA.gov is the U.S. government's official web portal to all federal, state and local government web resources and services.